Location: Unspecified
(0.0000°N, 0.0000°E)
Time: 15:52:08
(UTC+00:00)

Vanguard 2 - Pass Details

Date: 17 December 2017
Orbit: 553 x 2939 km, 32.9° (Epoch: 22 July)

Event Time Altitude Azimuth Distance (km) Brightness Sun altitude
Rises 11:34:41 0° 247° (WSW) 6,754 12.4 66.1°
Reaches altitude 10° 11:39:41 10° 252° (WSW) 5,612 12.1 66.3°
Maximum altitude 11:55:04 48° 321° (NW) 2,711 10.8 66.6°
Drops below altitude 10° 12:05:18 10° 33° (NNE) 3,811 11.0 66.5°
Sets 12:08:02 0° 40° (NE) 4,506 11.3 66.5°
